Elmendorf AFB, AK

1:45 AM AKDT on June 25, 2017 (GMT -0800)
Elmendorf Air Force Base

Weather History for PAED - December, 2012

Change the Weather History Date:

Tuesday, December 4, 2012

  Actual Average Record
Temperature  
Mean Temperature 0 °F -  
Max Temperature 8 °F 20 °F 53 °F (2011)
Min Temperature -9 °F 7 °F -16 °F (1975)
Degree Days  
Heating Degree Days 65    
Moisture  
Dew Point -13 °F    
Average Humidity 52    
Maximum Humidity 75    
Minimum Humidity 42    
Precipitation  
Precipitation 0.00 in - - ()
Snow  
Snow 0.00 in - - ()
Snow Depth 2.00 in    
Sea Level Pressure  
Sea Level Pressure 29.51 in    
Wind  
Wind Speed 9 mph (NE)    
Max Wind Speed 14 mph    
Max Gust Speed -    
Visibility 10 miles    
Events      
Averages and records for this station are not official NWS values.
T = Trace of Precipitation, MM = Missing Value Source: NWS Daily Summary

Daily Weather History Graph

Daily Weather History Graph

Search for Another Location

Airport or City:

Trip Planner

Search our weather history database for the weather conditions in past years. The results will help you decide how hot, cold, wet, or windy it might be!

Date:

Astronomy

Dec. 04, 2012 Rise Set
Actual Time 9:52 AM AKST 3:46 PM AKST
Civil Twilight 8:53 AM AKST 4:45 PM AKST
Nautical Twilight 7:55 AM AKST 5:43 PM AKST
Astronomical Twilight 7:02 AM AKST 6:36 PM AKST
Moon 11:01 PM AKST (12/4) 12:41 PM AKST (12/4)
Length of Visible Light 7h 51m
Length of Day
5h 53m
Waning Gibbous, 68% of the Moon is Illuminated
Dec 4
Waning Gibbous
Dec 6
Last Quarter
Dec 12
New
Dec 19
First Quarter
Dec 28
Full

Hourly Weather History & Observations

Time (AKST) Temp. Windchill Dew Point Humidity Pressure Visibility Wind Dir Wind Speed Gust Speed Precip Events Conditions
12:55 AM 8.2 °F -8.2 °F -10.3 °F 43% 29.53 in 10.0 mi NE 13.8 mph - N/A   Clear
1:55 AM 7.5 °F -6.9 °F -11.0 °F 43% 29.54 in 10.0 mi NE 10.4 mph - N/A   Clear
2:55 AM 6.3 °F -9.2 °F -11.6 °F 44% 29.53 in 10.0 mi NNE 11.5 mph - N/A   Clear
3:55 AM 5.7 °F -9.1 °F -10.8 °F 47% 29.52 in 10.0 mi NNE 10.4 mph - N/A   Partly Cloudy
4:55 AM 5.5 °F -10.2 °F -13.0 °F 42% 29.51 in 10.0 mi NE 11.5 mph - N/A   Clear
5:55 AM 4.8 °F -10.2 °F -12.3 °F 45% 29.50 in 10.0 mi NNE 10.4 mph - N/A   Clear
6:55 AM 4.1 °F -9.2 °F -11.7 °F 48% 29.50 in 10.0 mi NNE 8.1 mph - N/A   Clear
7:55 AM 3.6 °F -11.8 °F -11.6 °F 50% 29.50 in 10.0 mi NE 10.4 mph - N/A   Clear
8:55 AM 2.7 °F -12.0 °F -11.4 °F 52% 29.50 in 10.0 mi NE 9.2 mph - N/A   Clear
9:55 AM 2.3 °F -13.4 °F -12.3 °F 51% 29.50 in 10.0 mi NNE 10.4 mph - N/A   Clear
10:55 AM 2.5 °F -12.2 °F -13.2 °F 48% 29.51 in 10.0 mi NE 9.2 mph - N/A   Clear
11:55 AM 3.4 °F -10.0 °F -13.0 °F 47% 29.51 in 10.0 mi NNE 8.1 mph - N/A   Clear
12:55 PM 3.9 °F -6.9 °F -13.4 °F 45% 29.50 in 10.0 mi ENE 5.8 mph - N/A   Clear
1:55 PM 4.3 °F -10.0 °F -13.0 °F 45% 29.49 in 10.0 mi NE 9.2 mph - N/A   Clear
2:55 PM 3.7 °F -9.6 °F -12.8 °F 46% 29.49 in 10.0 mi NE 8.1 mph - N/A   Clear
3:55 PM 2.7 °F -10.9 °F -12.5 °F 49% 29.49 in 10.0 mi ENE 8.1 mph - N/A   Clear
4:55 PM 1.9 °F -10.6 °F -12.5 °F 51% 29.50 in 10.0 mi NE 6.9 mph - N/A   Clear
5:55 PM 0.9 °F -10.5 °F -13.0 °F 52% 29.50 in 10.0 mi NE 5.8 mph - N/A   Clear
6:55 PM 0.3 °F -13.8 °F -13.0 °F 54% 29.50 in 10.0 mi NE 8.1 mph - N/A   Clear
7:55 PM -0.2 °F - -11.9 °F 58% 29.50 in 10.0 mi Calm Calm - N/A   Clear
8:55 PM -8.0 °F -21.0 °F -16.2 °F 67% 29.50 in 10.0 mi ESE 5.8 mph - N/A   Clear
9:55 PM -8.7 °F - -16.1 °F 70% 29.51 in 10.0 mi Calm Calm - N/A   Clear
10:55 PM -8.3 °F - -15.0 °F 73% 29.51 in 10.0 mi Calm Calm - N/A   Clear
11:55 PM -9.8 °F -21.3 °F -15.7 °F 75% 29.52 in 10.0 mi East 4.6 mph - N/A   Clear